This is the latest recevied weather packets stored in our database for station/object p43g-13. If no packets are shown the sender has not sent any weather packets the latest 10 day(s).
| Time | Temp. | Humidity | Pressure | Rain* | Wind** | Luminosity | Snow |
|---|---|---|---|---|---|---|---|
| 1787952946 | 30° C | 80% | 1009.3 hPa | 0 mm | - | 97 W/m² | - |
| 1787952646 | 30° C | 79% | 1009.2 hPa | 0 mm | - | 121 W/m² | - |
| 1787952346 | 30° C | 78% | 1009.3 hPa | 0 mm | - | 155 W/m² | - |
| 1787952045 | 30° C | 78% | 1009.3 hPa | 0 mm | - | 163 W/m² | - |
| 1787951746 | 30.56° C | 78% | 1009.3 hPa | 0 mm | - | 131 W/m² | - |
| 1787951445 | 30° C | 77% | 1009.2 hPa | 0 mm | - | 199 W/m² | - |
| 1787951146 | 30° C | 78% | 1009 hPa | 0 mm | - | 226 W/m² | - |
| 1787950846 | 30.56° C | 77% | 1009.4 hPa | 0 mm | - | 247 W/m² | - |
| 1787950545 | 30.56° C | 77% | 1009.3 hPa | 0 mm | - | 269 W/m² | - |
| 1787950246 | 30.56° C | 76% | 1009.2 hPa | 0 mm | - | 294 W/m² | - |
| 1787949945 | 30.56° C | 76% | 1009.2 hPa | 0 mm | - | 301 W/m² | - |
| 1787949646 | 30.56° C | 77% | 1009 hPa | 0 mm | - | 342 W/m² | - |
| 1787949346 | 30.56° C | 77% | 1009.3 hPa | 0 mm | - | 387 W/m² | - |
| 1787949045 | 30.56° C | 77% | 1009.3 hPa | 0 mm | - | 399 W/m² | - |
| 1787948745 | 30.56° C | 78% | 1009.3 hPa | 0 mm | - | 456 W/m² | - |
| 1787948446 | 30.56° C | 77% | 1009.3 hPa | 0 mm | - | 478 W/m² | - |
| 1787948146 | 30.56° C | 78% | 1009.2 hPa | 0 mm | - | 476 W/m² | - |
| 1787947846 | 30.56° C | 77% | 1009.4 hPa | 0 mm | - | 507 W/m² | - |
| 1787947545 | 30.56° C | 78% | 1009.3 hPa | 0 mm | - | 546 W/m² | - |
| 1787947246 | 30.56° C | 78% | 1009.3 hPa | 0 mm | - | 621 W/m² | - |
| 1787946945 | 30.56° C | 78% | 1009.2 hPa | 0 mm | - | 587 W/m² | - |
| 1787946646 | 30.56° C | 78% | 1009.6 hPa | 0 mm | - | 593 W/m² | - |
| 1787946346 | 30.56° C | 77% | 1009.5 hPa | 0 mm | - | 140 W/m² | - |
| 1787946045 | 30.56° C | 75% | 1009.5 hPa | 0 mm | - | 601 W/m² | - |
| 1787945746 | 30.56° C | 78% | 1009.6 hPa | 0 mm | - | 566 W/m² | - |
* Rain latest hour (hover to see other rain measurements)
** Current wind speed in m/s (hover to see current wind gust speed)